Location: ???? ???? ?????
(31.2680°N, 31.7283°E)
Time: 09:55:13
(UTC+00:00)

SEDSat Delta rocket - Pass Details

Date: 13 July 2020
Orbit: 533 x 1000 km, 31.4° (Epoch: 07 August)

Event Time Altitude Azimuth Distance (km) Brightness Sun altitude
Rises 19:05:17 0° 257° (WSW) 3,179 7.1 -22.7°
Reaches altitude 10° 19:07:36 10° 257° (WSW) 2,327 6.4 -23.0°
Maximum altitude 19:13:12 82° 170° (S) 869 3.6 -23.8°
Enters shadow 19:15:18 44° 88° (E) 1,211 4.2 -24.1°
